EW8780 Weather Reports


Display with metric or nautical units.
time (UTC)temp
F
wind
direction
speed
MPH
gust
MPH
rain 1hr
in
rain 24hr
in
rain mn
in
humidity
%
barometer
mb
20181119131614 40 42 0.0 0.0 0.00 0.00 0.00 98 1018.0
20181119130045 40 42 0.0 0.0 0.00 0.00 0.00 97 1017.9
20181119124619 39 42 0.0 0.0 0.00 0.00 0.00 97 1017.8
20181119123045 40 42 0.0 0.0 0.00 0.00 0.00 97 1017.6
20181119121558 41 42 0.0 0.0 0.00 0.00 0.00 98 1017.5
20181119120056 41 42 0.0 0.0 0.00 0.00 0.00 97 1017.3
20181119114613 41 42 0.0 0.0 0.00 0.00 0.00 97 1017.2
20181119113032 41 42 0.0 0.0 0.00 0.00 0.00 98 1017.1
20181119111528 40 71 0.0 0.0 0.00 0.00 0.00 98 1017.3
20181119110039 40 71 0.0 0.0 0.00 0.00 0.00 97 1017.4
20181119104531 41 71 0.0 0.0 0.00 0.00 0.00 97 1017.4
20181119103049 41 71 0.0 0.0 0.00 0.00 0.00 98 1017.4
20181119101524 41 71 0.0 0.0 0.00 0.00 0.00 98 1017.7
20181119100034 41 71 0.0 0.0 0.00 0.00 0.00 97 1017.7
20181119094523 41 71 0.0 0.0 0.00 0.00 0.00 97 1017.7
20181119093019 41 71 0.0 0.0 0.00 0.00 0.00 97 1017.7
20181119091514 41 71 0.0 0.0 0.00 0.00 0.00 97 1017.6
20181119090024 41 71 0.0 0.0 0.00 0.00 0.00 97 1017.4
20181119084519 41 71 0.0 0.0 0.00 0.00 0.00 97 1017.6
20181119083022 42 71 0.0 0.0 0.00 0.00 0.00 97 1017.6
20181119081511 41 71 0.0 0.0 0.00 0.00 0.00 97 1017.6
20181119080020 41 71 0.0 0.0 0.00 0.00 0.00 97 1017.6
20181119074510 41 71 0.0 0.0 0.00 0.00 0.00 97 1017.8
20181119073007 40 71 0.0 0.0 0.00 0.00 0.00 97 1017.9
20181119071504 39 71 0.0 0.0 0.00 0.00 0.00 97 1018.0
20181119070026 40 71 0.0 0.0 0.00 0.00 0.00 97 1017.8
20181119064508 40 71 0.0 0.0 0.00 0.00 0.00 97 1017.9
20181119063016 39 71 0.0 0.0 0.00 0.00 0.00 97 1018.1
20181119061506 39 71 0.0 0.0 0.00 0.00 0.00 97 1018.1
20181119060001 39 71 0.0 0.0 0.00 0.00 0.00 97 1018.3
20181119054658 39 71 0.0 0.0 0.00 0.00 0.00 97 1018.3
20181119053159 39 71 0.0 0.0 0.00 0.00 0.00 97 1018.4
20181119051640 41 71 0.0 0.0 0.00 0.00 0.00 97 1018.5
20181119050230 42 71 0.0 0.0 0.00 0.00 0.00 97 1018.6
20181119044616 42 71 0.0 0.0 0.00 0.00 0.00 97 1018.6
20181119043222 42 71 0.0 0.0 0.00 0.00 0.00 97 1018.7
20181119041708 42 71 0.0 0.0 0.00 0.00 0.00 97 1018.7
20181119040209 42 71 0.0 0.0 0.00 0.00 0.00 97 1018.7
20181119034651 42 71 0.0 0.0 0.00 0.00 0.00 97 1018.8
20181119033123 43 71 0.0 0.0 0.00 0.00 0.00 97 1018.9
20181119031635 43 142 0.0 0.0 0.00 0.00 0.00 97 1018.9
20181119030133 43 142 0.0 0.0 0.00 0.00 0.00 97 1018.8
20181119024632 43 142 0.0 0.0 0.00 0.00 0.00 96 1018.8
20181119023110 42 91 0.0 0.0 0.00 0.00 0.00 96 1018.7
20181119021635 43 91 0.0 0.0 0.00 0.00 0.00 96 1018.7
20181119020206 44 91 0.0 0.0 0.00 0.00 0.00 96 1018.7
20181119014648 44 126 0.0 0.0 0.00 0.00 0.00 96 1018.9
20181119013112 44 126 0.0 0.0 0.00 0.00 0.00 96 1018.9
20181119011625 45 126 0.0 0.0 0.00 0.00 0.00 96 1018.9
20181119010107 45 185 0.0 0.0 0.00 0.00 0.00 96 1018.9
20181119004616 45 185 0.0 0.0 0.00 0.00 0.00 96 1018.9
20181119003114 45 237 0.0 2.0 0.00 0.00 0.00 96 1018.9
20181119001610 45 219 0.0 3.0 0.00 0.00 0.00 95 1018.8
20181119000108 46 221 2.0 4.0 0.00 0.00 0.00 95 1018.8
20181118234619 46 229 2.0 4.0 0.00 0.00 0.00 95 1018.7
20181118233128 46 232 1.0 4.0 0.00 0.00 0.00 95 1018.4
20181118231642 46 232 0.0 5.0 0.00 0.00 0.00 95 1018.2
20181118230137 46 225 2.0 5.0 0.00 0.00 0.00 95 1017.9
20181118224625 46 210 2.0 4.0 0.00 0.00 0.00 94 1017.8
20181118223102 47 209 0.0 0.0 0.00 0.00 0.00 95 1017.6
20181118221619 46 209 0.0 3.0 0.00 0.00 0.00 95 1017.7
20181118220055 46 209 1.0 5.0 0.00 0.00 0.00 95 1017.9
20181118214602 46 201 1.0 6.0 0.00 0.00 0.00 95 1018.1
20181118213047 46 210 2.0 6.0 0.00 0.00 0.00 96 1018.2
20181118211601 46 227 2.0 5.0 0.00 0.00 0.00 96 1018.2
20181118210118 46 219 1.0 6.0 0.00 0.00 0.00 96 1018.5
20181118204600 46 217 2.0 5.0 0.00 0.00 0.00 96 1018.6
20181118203036 46 217 2.0 6.0 0.00 0.00 0.00 96 1018.8
20181118201600 46 217 2.0 4.0 0.00 0.00 0.00 97 1018.9
20181118200042 46 223 2.0 4.0 0.00 0.00 0.00 97 1019.1
20181118194611 45 223 0.0 4.0 0.00 0.00 0.00 97 1019.4
20181118193043 45 212 0.0 0.0 0.00 0.00 0.00 97 1019.6
20181118191542 45 212 0.0 4.0 0.00 0.00 0.00 97 1019.7
20181118190109 44 234 0.0 0.0 0.00 0.00 0.00 97 1019.8
20181118184604 44 234 0.0 0.0 0.00 0.00 0.00 97 1020.1
20181118183029 44 234 0.0 0.0 0.00 0.00 0.00 97 1020.1
20181118181521 44 234 0.0 0.0 0.00 0.00 0.00 97 1020.3
20181118180018 44 234 0.0 0.0 0.00 0.00 0.00 97 1020.3
20181118174527 44 234 0.0 0.0 0.00 0.00 0.00 97 1020.4
20181118173025 44 234 0.0 0.0 0.00 0.00 0.00 97 1020.4
20181118171553 44 20 0.0 0.0 0.00 0.00 0.00 97 1020.3
20181118170027 43 20 0.0 0.0 0.00 0.00 0.00 97 1020.2
20181118164511 43 9 0.0 0.0 0.00 0.00 0.00 97 1020.1
20181118163019 43 9 0.0 0.0 0.00 0.00 0.00 97 1020.0
20181118161517 43 9 0.0 0.0 0.00 0.00 0.00 97 1019.9
20181118160028 43 9 0.0 0.0 0.00 0.00 0.00 97 1019.7
20181118154503 43 9 0.0 0.0 0.00 0.00 0.00 97 1019.7
20181118153003 43 9 0.0 0.0 0.00 0.00 0.00 97 1019.6
20181118151655 43 9 0.0 0.0 0.00 0.00 0.00 97 1019.4
20181118150204 43 32 0.0 0.0 0.00 0.00 0.00 97 1019.3
20181118144634 43 360 0.0 0.0 0.00 0.00 0.00 97 1019.3
20181118143231 43 360 0.0 0.0 0.00 0.00 0.00 97 1019.3
20181118141659 43 28 0.0 0.0 0.00 0.00 0.00 97 1019.3
20181118140142 43 5 0.0 0.0 0.00 0.00 0.00 97 1019.3
20181118134612 43 5 0.0 0.0 0.00 0.00 0.00 97 1019.3
20181118133155 43 5 0.0 0.0 0.00 0.00 0.00 97 1019.3